Location: Poughquag
(41.6090°N, 73.6820°W)
Time: 14:51:38
(UTC-04:00)

Explorer 11/Cluster Stage 4 - Pass Details

Date: 02 June 2020
Orbit: 467 x 1259 km, 28.8° (Epoch: 05 July)

Event Time Altitude Azimuth Distance (km) Brightness Sun altitude
Rises 10:09:48 0° 258° (WSW) 3,875 9.8 50.9°
Reaches altitude 10° 10:13:10 10° 243° (WSW) 3,028 9.4 51.5°
Maximum altitude 10:18:40 22° 197° (SSW) 2,391 9.3 52.5°
Drops below altitude 10° 10:24:31 10° 151° (SSE) 3,222 10.3 53.5°
Sets 10:28:14 0° 138° (SE) 4,188 10.8 54.1°
